Flight Track Log - Related Links

Times and Time Zones

All times are in EDT time to prevent confusion due to time zone crossing. See the N27XP flight status page for this flight to view local times or setup timezone preferences in your user account.

Time Position Orientation Groundspeed Altitude Reporting Facility
EDT Latitude Longitude Course Direction KTS MPH feet Rate Location/Type
Sun 04:58:07 PM 34.9083 -82.1189 75° East 261 300 7,300  Level Atlanta Center
Sun 04:59:07 PM 34.8700 -82.0717 135° Southeast 237 273 10,100 2,100 Climbing Atlanta Center
Sun 05:00:07 PM 34.8744 -81.9653 87° East 235 270 11,500 1,550 Climbing Atlanta Center
Sun 05:01:07 PM 34.8786 -81.8386 88° East 313 360 13,200 1,750 Climbing Atlanta Center
Sun 05:02:00 PM 34.9636 -81.6996 75° East  Level Estimated
Sun 05:02:07 PM 34.8783 -81.7194 90° East 347 399 15,000  Level Atlanta Center
Sun 05:03:07 PM 34.8739 -81.5881 92° East 358 412 16,100 1,000 Climbing Atlanta Center
Sun 05:04:07 PM 34.8819 -81.4764 85° East 379 436 17,000 450 Climbing Atlanta Center
Sun 05:05:07 PM 34.9019 -81.3417 80° East 391 450 17,000  Level Atlanta Center
Sun 05:06:07 PM 34.9261 -81.2092 77° East 391 450 17,000 -50 Level Atlanta Center
Sun 05:07:07 PM 34.9503 -81.0764 77° East 396 456 16,900  Descending Atlanta Center
Sun 05:07:09 PM 34.9519 -81.0636 81° East 404 465 17,000 -100 Climbing Atlanta Center
Sun 05:08:07 PM 34.9697 -80.9414 80° East 396 456 16,800 -1,017 Descending Atlanta Center
Sun 05:09:07 PM 34.9978 -80.8111 75° East 396 456 15,000 -1,969 Descending Atlanta Center
Sun 05:09:11 PM 35.0033 -80.7906 72° East 398 458 14,700 -1,900 Descending Atlanta Center
Sun 05:10:07 PM 35.0275 -80.6756 76° East 389 448 13,100 -1,448 Descending Atlanta Center
Sun 05:11:07 PM 35.0472 -80.5581 78° East 388 447 11,900 -1,343 Descending Atlanta Center
Sun 05:11:14 PM 35.0525 -80.5297 77° East 373 429 11,600 -1,800 Descending Atlanta Center
Sun 05:12:07 PM 35.0686 -80.4378 78° East 370 426 10,100 -1,869 Descending Atlanta Center
Sun 05:12:15 PM 35.0742 -80.4097 76° East 359 413 9,700 -1,100 Descending Atlanta Center
Sun 05:13:07 PM 35.0861 -80.3253 80° East 344 396 9,000 -375 Descending Atlanta Center
Sun 05:14:07 PM 35.1078 -80.2100 77° East 325 374 9,000  Level Atlanta Center
Sun 05:15:07 PM 35.1233 -80.1053 80° East 314 361 9,000 -50 Level Atlanta Center
Sun 05:16:07 PM 35.1447 -79.9975 76° East 314 361 8,900 -150 Descending Atlanta Center
Sun 05:17:07 PM 35.1622 -79.8978 78° East 319 367 8,700 -900 Descending Atlanta Center
Sun 05:18:07 PM 35.1819 -79.7975 76° East 312 359 7,100 -1,650 Descending Atlanta Center
Sun 05:19:07 PM 35.1931 -79.7031 82° East 296 341 5,400 -1,650 Descending Atlanta Center
Sun 05:20:07 PM 35.2083 -79.6056 79° East 269 310 3,800 -1,600 Descending Atlanta Center

Login

Don't have an account? Register now (free) for customized features, flight alerts, and more!